weather.gov     
National Weather Service

Regional Weather Roundup
NWS Homepage
This page is being discontinued on March 12, 2014.
The same data is available at this site. Please update your bookmarks.
Thank you, and we apologize for the inconvenience.
Please send an email to SR-SRH.Webmaster@noaa.gov with any concerns.


Current Version
Previous Version:    01  02  03  04  05  06  07  08  09  10  11  12  13  14  15  16  17  18  19  20  21  22  23  24  25  26  27  28  29  30  
   31  32  33  34  35  36  37  38  39  40  41  42  43  44  45  46  47  48  49  50  51  52  53  54  
[Printable]
751
ASUS43 KFGF 010331
RWRFGF
PRAIRIE TO PINES  WEATHER ROUNDUP
NATIONAL WEATHER SERVICE EASTERN NORTH DAKOTA/GRAND FORKS ND
1000 PM CDT THU JUL 31 2014

 **SATELLITE DATA USED TO AUGMENT SKY COVER AT AUTOMATED STATIONS**
 *****  WEATHER ACROSS EASTERN NORTH DAKOTA  *****

CITY           SKY/WX    TMP DP  RH WIND       PRES   REMARKS
GRAND FORKS    PTCLDY    69  65  86 CALM      29.98S
GRAND FRKS AFB CLEAR     66  64  94 W2        30.00R
GRAND FRKS NWS   N/A     72 N/A N/A NE1         N/A
DEVILS LAKE    CLEAR     70  61  73 CALM      30.02S
FARGO          CLEAR     72  61  68 S3        29.99S
WAHPETON ARPT  CLEAR     64  59  82 CALM      30.01S
$$

 ***** WEATHER ACROSS CENTRAL AND WESTERN NORTH DAKOTA  *****

CITY           SKY/WX    TMP DP  RH WIND       PRES   REMARKS
BISMARCK       PTCLDY    70  55  59 CALM      30.03R
MINOT          CLEAR     67  57  70 NE5       30.03R
JAMESTOWN      CLEAR     66  62  87 CALM      30.03R
MINOT AFB      CLEAR     70  60  71 SE2       30.03R
GARRISON         N/A     69  59  70 E6        30.04R
WILLISTON      CLEAR     76  58  53 E8        30.01R
DICKINSON      CLEAR     68  58  70 SE9       30.03R
HETTINGER      CLEAR     69  54  58 E7        30.06S
$$

 *****  OTHER AIRPORT OBSERVATIONS IN OUR AREA  *****

CITY           SKY/WX    TMP DP  RH WIND       PRES   REMARKS
WALHALLA         N/A     64  64 100 NW5         N/A
GRAFTON AIRPOR FAIR      68  63  83 N3        30.00R
VALLEY CITY AR FAIR      64  59  82 CALM      30.03R
CANDO          FAIR      64  63  94 N3        30.04R
CAVALIER APRT  FAIR      64  63  94 CALM      30.01R FOG
GWINNER          N/A     66  64  94 W6        30.04R
SHEYENNE NWR     N/A     66  64  92 CALM      29.95S
ROLLA          FAIR      61  61 100 N6        30.08R
 ***** THE ABOVE OBSERVATIONS ARE NON NWS ARE NOT QUALITY
       CONTROLLED AND MAY MIS-REPORT RAIN FOR SNOW...
$$

  *****  WEATHER ACROSS NORTHERN MINNESOTA  *****

CITY           SKY/WX    TMP DP  RH WIND       PRES   REMARKS
FLAG ISLAND    CLEAR     70  64  83 CALM      29.98S
WARROAD        CLEAR     66  59  77 CALM      29.99S
ROSEAU           N/A     66  59  77 NW3       29.99F
HALLOCK        CLEAR     68  63  83 CALM      30.00R
THF RVR FALLS  CLEAR     66  63  88 CALM      30.01R
BAUDETTE       CLEAR     65  59  81 CALM      30.00S
WASKISH        CLEAR     61  59  94 CALM      30.00S
CROOKSTON      CLEAR     72  64  78 CALM      30.00S
$$
  *****  WEATHER ACROSS CENTRAL AND WEST MINNESOTA  *****

CITY           SKY/WX    TMP DP  RH WIND       PRES   REMARKS
FOSSTON        CLEAR     61  52  72 CALM      30.02S
BEMIDJI        CLEAR     61  58  90 CALM      30.01S
PARK RAPIDS    CLEAR     65  60  84 CALM      30.02R
ELBOW LAKE     FAIR      69  62  77 CALM      30.03R
WADENA         CLEAR     63  59  88 CALM      30.02S
DETROIT LAKES  CLEAR     68  61  77 CALM      30.04R
MOORHEAD       CLEAR     72  66  83 CALM      30.01R
FERGUS FALLS   CLEAR     70  57  64 CALM      30.02R
MORRIS MN      CLEAR     64  61  88 W3        30.02S
STAPLES        CLEAR     64  57  77 CALM      30.02S
$$
  *****  WEATHER ELSEWHERE ACROSS MINNESOTA  *****

CITY           SKY/WX    TMP DP  RH WIND       PRES   REMARKS
DULUTH         CLEAR     64  57  78 CALM      29.99S
INTRNTL FALLS  CLEAR     56  55  97 CALM      29.99R
ELY            CLEAR     57  52  82 CALM      30.01R
CLOQUET        CLEAR     63  57  82 CALM      30.00S
WHEATON        CLEAR     64  59  82 CALM      30.04R
BRAINERD       MOCLDY    67  62  84 CALM      30.01R
HIBBING        PTCLDY    61  57  87 CALM      30.00R
ALEXANDRIA     CLEAR     69  61  75 CALM      30.04R
SAINT CLOUD    CLEAR     67  59  75 CALM      30.00S
MINNEAPOLIS    CLEAR     74  57  55 CALM      30.01R
$$

  *****  WEATHER ACROSS SOUTH DAKOTA  *****

CITY           SKY/WX    TMP DP  RH WIND       PRES   REMARKS
SIOUX FALLS    CLEAR     63  60  90 CALM      30.05R
BROOKINGS      NOT AVBL
WATERTOWN      CLEAR     67  55  65 N3        30.06R
HURON          CLEAR     69  58  67 E3        30.04R
SISSETON         N/A     66  63  90 W3        30.02R
ABERDEEN       CLEAR     63  59  87 E3        30.04R
MITCHELL       CLEAR     68  62  81 E7        30.04R
PIERRE         CLEAR     72  59  63 SE7       30.03R
MOBRIDGE       CLEAR     70  54  56 E7        30.01S
RAPID CITY     TSTM      66  53  63 E16G32    30.12F
$$

  *****  SOME WEATHER IN NEARBY STATES *****

CITY           SKY/WX    TMP DP  RH WIND       PRES   REMARKS
GLASGOW MT     MOCLDY    78  45  30 N5        29.98R
GREAT FALLS MT PTCLDY    77  43  29 NW5       30.11R
CHEYENNE WY    PTCLDY    65  51  60 SW7       30.30R
SCOTTSBLUFF NE CLEAR     68  53  58 E7        30.16R
OMAHA NE       MOCLDY    73  60  63 E10       30.03R
DES MOINES IA  MOCLDY    70  62  76 NE5       30.04R
DAVENPORT IA   PTCLDY    64  60  87 CALM      30.06R
CHICAGO IL     CLEAR     72  57  59 SW6       30.04R
EAU CLAIRE WI  PTCLDY    69  61  75 SW3       29.99R
LA CROSSE WI   CLEAR     69  62  78 E6        30.00S
$$

  *****  SOME NATIONAL WEATHER *****

CITY           SKY/WX    TMP DP  RH WIND       PRES   REMARKS
LA GUARDIA NY  PTCLDY    75  66  73 S8        30.13S
RALEIGH NC     LGT RAIN  70  66  88 W3        30.17R
ATLANTA GA     LGT RAIN  69  66  90 NE12      30.10R
NEW ORLEANS LA MOCLDY    79  69  71 SE5       29.99R
OKLAHOMA CITY  PTCLDY    69  65  86 E6        30.06R
ALBUQUERQUE NM CLOUDY    67  56  67 E18       30.25R
SALT LAKE CITY MOCLDY    78  49  35 NW6       30.11R
LOS ANGELES CA PTCLDY    69  61  75 W14       29.87R
BOISE ID       MOCLDY    82  47  29 E21G29    30.05R
SEATTLE WA     PTCLDY    81  46  29 N9        30.03F
$$

*** WEATHER ACROSS MANITOBA...SASKATCHEWAN AND ONTARIO ***
                ***ONTARIO***

CITY           SKY/WX    TMP DP  RH WIND       PRES   REMARKS
GERALDTON      CLOUDY   N/A N/A N/A NW6         N/A
THUNDER BAY    PTCLDY    63  55  77 E7        29.97R
SIOUX LOOKOUT  PTCLDY    55  54  94 NE3       29.99R
TORONTO        PTCLDY    68  55  64 SW9       30.05S
BIG TROUT LK   CLOUDY    55  50  82 NE5       30.00R
PICKLE LAKE    NOT AVBL
DRYDEN         CLEAR     66  46  48 NW6       30.00
KENORA         MOCLDY    68  54  60 NE2       30.01S
$$
                *** MANITOBA***

CITY           SKY/WX    TMP DP  RH WIND       PRES   REMARKS
BRANDON        MOCLDY    66  61  82 NE5       30.05R
DAUPHIN        CLEAR     66  61  82 SW5       30.02S
ISLAND LAKE    PTCLDY    64  52  63 N2        30.03S
PILOT MOUND      N/A     66  59  77 N7          N/A
THE PAS        CLOUDY    66  61  82 S6        30.00
THOMPSON       MOCLDY    68  59  73 E5        29.99F
WINNIPEG       PTCLDY    63  55  77 N3        30.01R
LYNN LAKE      CLEAR     66  59  77 SW3       30.00R
CHURCHILL      CLEAR     61  54  77 SE10      30.02S
GILLAM         CLOUDY    57  54  88 SE3       30.03S
$$
                ***SASKATCHEWAN***

CITY           SKY/WX    TMP DP  RH WIND       PRES   REMARKS
ESTEVAN        PTCLDY    68  63  83 E5        30.06R
KINDERSLEY     PTCLDY    70  64  83 NE7       30.07
LLOYDMINSTER   MOCLDY    72  63  73 SE3       30.06S
PRINCE ALBERT  MOCLDY    66  61  82 E5        30.05R
REGINA         PTCLDY    73  61  64 E8        30.05R
YORKTON        NOT AVBL
N. BATTLEFORD    N/A     70  64  83 E7        30.09R
LA RONGE       MOCLDY    75  55  50 NW6       30.02R
SASKATOON      PTCLDY    70  63  78 E9        30.07R
SWIFT CURRENT  CLOUDY    72  63  73 NE9G69    30.03R THUNDER
$$
NOTE: THESE ARE AUTOMATED STATIONS WITH LIMITED QUALITY CONTROL
      "FAIR" INDICATES FEW OR NO CLOUDS BELOW 12,000 FEET WITH NO
      SIGNIFICANT WEATHER AND/OR OBSTRUCTIONS TO VISIBILITY.
      SKY/WX - SKY CONDITION AND SIGNIFICANT WEATHER.
      TMP - AIR TEMPERATURE.    DP   - DEWPOINT TEMPERATURE.
      RH  - RELATIVE HUMIDITY.  PRES - PRESSURE.
      HX  - HEAT INDEX.         WCI  - WIND CHILL INDEX.
$




U.S. Dept. of Commerce
NOAA National Weather Service
1325 East West Highway
Silver Spring, MD 20910
E-mail: w-nws.webmaster@noaa.gov
Page last modified: May 16, 2007
NATIONAL WEATHER SERVICE: for Safety, for Work, for Fun - FOR LIFE